This is the latest recevied weather packets stored in our database for station/object KA8OAD-10. If no packets are shown the sender has not sent any weather packets the latest 10 day(s).
| Time | Temp. | Humidity | Pressure | Rain* | Wind** | Luminosity | Snow |
|---|---|---|---|---|---|---|---|
| 1777922851 | 22.22° C | 49% | 1004.3 hPa | 0 mm | - | 79 W/m² | - |
| 1777922551 | 22.78° C | 47% | 1004.4 hPa | 0 mm | - | 842 W/m² | - |
| 1777921352 | 22.78° C | 48% | 1004.5 hPa | 0 mm | - | 824 W/m² | - |
| 1777921053 | 22.78° C | 48% | 1004.6 hPa | 0 mm | - | 821 W/m² | - |
| 1777920752 | 23.33° C | 48% | 1004.7 hPa | 0 mm | - | 840 W/m² | - |
| 1777920451 | 22.78° C | 47% | 1004.8 hPa | 0 mm | - | 842 W/m² | - |
| 1777920150 | 22.78° C | 48% | 1004.7 hPa | 0 mm | - | 838 W/m² | - |
| 1777919549 | 22.78° C | 46% | 1004.9 hPa | 0 mm | - | 847 W/m² | - |
| 1777919253 | 22.78° C | 46% | 1005 hPa | 0 mm | - | 856 W/m² | - |
| 1777918952 | 23.33° C | 47% | 1005 hPa | 0 mm | - | 865 W/m² | - |
| 1777918652 | 23.33° C | 44% | 1005 hPa | 0 mm | - | 860 W/m² | - |
| 1777918351 | 23.33° C | 46% | 1004.9 hPa | 0 mm | - | 868 W/m² | - |
| 1777918051 | 23.33° C | 45% | 1005.2 hPa | 0 mm | - | 875 W/m² | - |
| 1777917751 | 23.33° C | 45% | 1005.1 hPa | 0 mm | - | 872 W/m² | - |
| 1777916853 | 22.78° C | 46% | 1005.4 hPa | 0 mm | - | 847 W/m² | - |
| 1777916552 | 22.78° C | 45% | 1005.4 hPa | 0 mm | - | 886 W/m² | - |
| 1777916252 | 22.78° C | 44% | 1005.4 hPa | 0 mm | - | 884 W/m² | - |
| 1777915952 | 23.33° C | 44% | 1005.4 hPa | 0 mm | - | 893 W/m² | - |
| 1777915652 | 22.78° C | 47% | 1005.6 hPa | 0 mm | - | 893 W/m² | - |
| 1777915050 | 22.78° C | 45% | 1005.6 hPa | 0 mm | - | 898 W/m² | - |
| 1777914454 | 22.22° C | 46% | 1005.7 hPa | 0 mm | - | 900 W/m² | - |
| 1777914151 | 22.22° C | 47% | 1005.7 hPa | 0 mm | - | 896 W/m² | - |
| 1777912949 | 21.67° C | 47% | 1005.8 hPa | 0 mm | - | 888 W/m² | - |
| 1777912653 | 21.67° C | 48% | 1005.9 hPa | 0 mm | - | 891 W/m² | - |
| 1777912352 | 21.11° C | 47% | 1005.8 hPa | 0 mm | - | 888 W/m² | - |
* Rain latest hour (hover to see other rain measurements)
** Current wind speed in m/s (hover to see current wind gust speed)